This demonstration page uses our WeatherBlox Daily Observations layout. Learn more.

Left ArrowRight Arrow

Hourly Observations for January 31, 2015

Temp ( °F °C ) Dew Point ( °F °C ) Humidity (%) Winds ( mph kmh ) Pressure ( in mb ) Visibility ( mi km ) Precip ( " mm )
12:52 am 00:52 Mostly Cloudy 33 0.6 25 -3.9 72 72 SE 8 13 30.25 1025 10 16 0.00 0.00
1:52 am 01:52 Mostly Cloudy 33 0.6 26 -3.3 75 75 SE 9 15 30.24 1024 10 16 0.00 0.00
2:52 am 02:52 Cloudy 32 0 26 -3.3 79 79 SE 8 13 30.23 1024 10 16 0.00 0.00
3:52 am 03:52 Mostly Cloudy 33 0.6 27 -2.8 78 78 SE 9 15 30.22 1023 10 16 0.00 0.00
4:52 am 04:52 Cloudy 34 1.1 28 -2.2 79 79 SSE 8 13 30.21 1023 10 16 0.00 0.00
5:52 am 05:52 Cloudy 35 1.7 29 -1.7 78 78 SSE 8 13 30.20 1023 10 16 0.00 0.00
6:36 am 06:36 Cloudy 36 2 30 -1 81 81 SSE 9 15 30.24 1024 10 16 0.00 0.00
6:52 am 06:52 Cloudy 36 2.2 31 -0.6 82 82 SSE 10 17 30.19 1022 10 16 0.00 0.00
7:34 am 07:34 Cloudy 36 2 34 1 93 93 S 9 15 30.21 1023 10 16 0.00 0.00
7:52 am 07:52 Cloudy 37 2.8 34 1.1 89 89 S 9 15 30.19 1022 10 16 0.00 0.00
8:52 am 08:52 Cloudy with Light Rain 37 2.8 34 1.1 89 89 S 10 17 30.19 1022 10 16 0.00 0.03
9:52 am 09:52 Cloudy with Light Rain 36 2.2 34 1.1 93 93 S 10 17 30.18 1022 10 16 0.00 0.03
10:52 am 10:52 Cloudy with Light Rain/Snow 35 1.7 33 0.6 93 93 S 9 15 30.17 1022 4 6 0.03 0.76
10:59 am 10:59 Cloudy with Light Rain/Snow 34 1.1 33 0.6 97 97 S 10 17 30.21 1023 2 3 0.00 0.03
11:47 am 11:47 Cloudy with Light Rain/Snow 36 2 34 1 93 93 SSE 8 13 30.18 1022 3 5 0.02 0.51
11:52 am 11:52 Cloudy with Light Rain/Snow 35 1.7 33 0.6 93 93 SSE 8 13 30.16 1021 3 5 0.02 0.51
12:41 pm 12:41 Cloudy with Light Rain/Snow 34 1.1 33 0.6 97 97 SSE 10 17 30.15 1021 2 3 0.03 0.76
12:52 pm 12:52 Cloudy with Light Rain/Snow 34 1.1 33 0.6 97 97 SSE 10 17 30.12 1020 2 3 0.03 0.76
1:06 pm 13:06 Cloudy with Light Snow 34 1 34 1 100 100 SSE 9 15 30.15 1021 2 2 0.00 0.00
1:22 pm 13:22 Cloudy with Light Snow 34 1 32 0 93 93 SSE 12 19 30.12 1020 1 1 0.00 0.00
1:52 pm 13:52 Cloudy with Light Snow 33 0.6 32 0 96 96 SSE 10 17 30.08 1019 1 1 0.04 1.02
1:59 pm 13:59 Cloudy with Light Snow 33 0.6 32 0 96 96 S 10 17 30.12 1020 1 1 0.01 0.25
2:13 pm 14:13 Cloudy with Light Snow 33 0.6 32 0 96 96 SSE 8 13 30.09 1019 1 2 0.01 0.25
2:35 pm 14:35 Cloudy with Light Snow 33 0.6 32 0 96 96 SSE 10 17 30.09 1019 1 2 0.03 0.76
2:43 pm 14:43 Cloudy with Light Rain/Snow 33 0.6 33 0.6 100 100 SE 8 13 30.09 1019 3 5 0.03 0.76
2:52 pm 14:52 Cloudy with Light Rain/Snow 34 1.1 33 0.6 97 97 SSE 9 15 30.05 1018 4 6 0.03 0.76
3:07 pm 15:07 Cloudy with Light Rain 34 1.1 33 0.6 97 97 SE 9 15 30.09 1019 9 14 0.00 0.03
3:52 pm 15:52 Cloudy with Light Rain/Snow 35 1.7 33 0.6 93 93 SE 13 20 30.02 1017 4 6 0.00 0.03
4:17 pm 16:17 Cloudy with Light Snow 33 0.6 32 0 96 96 SSE 12 19 30.06 1018 2 3 0.02 0.51
4:26 pm 16:26 Cloudy with Light Snow 34 1 32 0 93 93 SE 10 17 30.03 1017 2 2 0.00 0.00
4:40 pm 16:40 Cloudy with Light Snow 34 1 32 0 93 93 SSE 9 15 30.03 1017 1 1 0.00 0.00
4:52 pm 16:52 Cloudy with Light Snow 33 0.6 32 0 96 96 SSE 8 13 30.00 1016 1 1 0.05 1.27
5:52 pm 17:52 Cloudy with Light Snow 33 0.6 32 0 96 96 SE 7 11 29.99 1016 1 2 0.05 1.27
6:52 pm 18:52 Cloudy with Light Snow 33 0.6 32 0 96 96 SE 6 9 29.98 1015 2 2 0.05 1.27
7:52 pm 19:52 Cloudy with Light Snow 33 0.6 32 0 96 96 SE 3 6 29.97 1015 1 2 0.05 1.27
8:52 pm 20:52 Cloudy with Light Snow 33 0.6 32 0 96 96 Calm 29.94 1014 1 2 0.06 1.52
9:52 pm 21:52 Cloudy with Light Snow 33 0.6 32 0 96 96 E 3 6 29.93 1013 1 2 0.07 1.78
10:52 pm 22:52 Cloudy with Light Snow 33 0.6 32 0 96 96 ENE 5 7 29.91 1013 1 2 0.06 1.52
11:52 pm 23:52 Cloudy with Light Snow 33 0.6 32 0 96 96 Calm 29.89 1012 1 1 0.07 1.78

Powered by AerisWeather